Location: Santa Teresa Spring
(37.2333°N, 121.7000°W)
Time: 08:38:46
(UTC-08:00)

ISS - Visible Passes

Search period start: 01 March 2015 00:00
Search period end: 11 March 2015 01:00
Orbit: 397 x 408 km, 51.6° (Epoch: 01 March)

Date Brightness Start Highest point End Pass type
(mag) Time Alt. Az. Time Alt. Az. Time Alt. Az.
07 Mar -0.3 05:43:57 10° SSE 05:45:33 13° SE 05:47:16 10° E visible
09 Mar -1.7 06:32:32 10° SSW 06:35:28 33° SE 06:38:27 10° ENE visible
10 Mar -0.7 05:41:00 13° SSE 05:42:26 16° SE 05:44:34 10° E visible
